Location: Crocus Hill
(18.2167°N, 63.0667°W)
Time: 14:38:15
(UTC+00:00)

Milstar 3 Cent rocket - Pass Details

Date: 26 January 2020
Orbit: 709 x 5144 km, 28.3° (Epoch: 22 February)

Event Time Altitude Azimuth Distance (km) Brightness Sun altitude
Exits shadow 08:29:25 44° 265° (W) 4,129 5.1 -32.3°
Maximum altitude 08:37:25 74° 338° (NNW) 2,680 4.5 -30.4°
Drops below altitude 10° 08:48:07 10° 64° (ENE) 3,810 6.2 -27.9°
Sets 08:50:26 0° 66° (ENE) 4,463 6.7 -27.4°
